This demonstration page uses our WeatherBlox Daily Observations layout. Learn more.

Left ArrowRight Arrow

Hourly Observations for March 20, 2017

Temp ( °F °C ) Dew Point ( °F °C ) Humidity (%) Winds ( mph kmh ) Pressure ( in mb ) Visibility ( mi km ) Precip ( " mm )
12:53 am 00:53 Clear 34 1.1 30 -1.1 85 85 ENE 5 7 30.28 1025 10 16.0934 N/A
1:53 am 01:53 Clear 34 1.1 30 -1.1 85 85 E 3 6 30.27 1025 10 16.0934 N/A
2:53 am 02:53 Clear 32 undefined 29 -1.7 88 88 E 5 7 30.24 1024 10 16.0934 N/A
3:53 am 03:53 Clear 32 undefined 30 -1.1 92 92 N N/A 30.2 1023 10 16.0934 N/A
4:53 am 04:53 Clear 34 1.1 30 -1.1 85 85 ESE 3 6 30.18 1022 10 16.0934 N/A
5:53 am 05:53 Mostly Clear 34 1.1 30 -1.1 85 85 E 5 7 30.18 1022 10 16.0934 N/A
6:53 am 06:53 Cloudy 37 2.8 33 0.6 86 86 E 7 11 30.16 1022 10 16.0934 N/A
7:49 am 07:49 Cloudy with Thunderstorms 39 4 34 1 81 81 N 16 26 30.24 1024 10 16.0934 N/A
7:53 am 07:53 Cloudy with Light Thunderstorms 40 4.4 33 0.6 77 77 N 10 17 30.26 1025 10 16.0934 N/A
8:45 am 08:45 Cloudy with Nearby Thunderstorms 37 2.8 36 2.2 96 96 NNE 5 7 30.3 1026 8 12.87472 0.19 4.826
8:53 am 08:53 Cloudy with Nearby Thunderstorms 38 3.3 36 2.2 93 93 N N/A 30.29 1026 8 12.87472 0.19 4.826
9:01 am 09:01 Cloudy with Light Thunderstorms 38 3.3 37 2.8 97 97 N N/A 30.3 1026 6 9.65604 0.01 0.254
9:10 am 09:10 Cloudy with Heavy Rain 37 2.8 37 2.8 100 100 N N/A 30.3 1026 2.5 4.02335 0.05 1.27
9:16 am 09:16 Cloudy with Nearby Thunderstorms 37 2.8 37 2.8 100 100 S 3 6 30.3 1026 3 4.82802 0.05 1.27
9:32 am 09:32 Cloudy with Nearby Thunderstorms 37 2.8 37 2.8 100 100 SE 3 6 30.27 1025 1.75 2.816345 0.11 2.794
9:39 am 09:39 Cloudy with Heavy Thunderstorms 37 2.8 37 2.8 100 100 SSE 6 9 30.24 1024 1.5 2.41401 0.15 3.81
9:53 am 09:53 Cloudy with Thunderstorms 38 3.3 37 2.8 97 97 N N/A 30.24 1024 1.5 2.41401 0.2 5.08
9:57 am 09:57 Cloudy with Light Thunderstorms 38 3.3 37 2.8 97 97 SSE 5 7 30.21 1023 2 3.21868 N/A
10:05 am 10:05 Cloudy with Light Rain 38 3.3 38 3.3 100 100 N N/A 30.21 1023 4 6.43736 N/A
10:49 am 10:49 Cloudy with Rain 39 3.9 39 3.9 100 100 S 3 6 30.22 1023 1.75 2.816345 0.05 1.27
10:57 am 10:57 Cloudy with Rain 39 3.9 39 3.9 100 100 SSW 3 6 30.21 1023 2 3.21868 0.02 0.508
11:01 am 11:01 Cloudy with Rain 39 3.9 39 3.9 100 100 SW 5 7 30.21 1023 1.5 2.41401 0.04 1.016
11:19 am 11:19 Cloudy with Rain 40 4.4 39 3.9 97 97 VRB 7 11 30.12 1020 2 3.21868 0.13 3.302
11:31 am 11:31 Cloudy with Light Rain 41 5 40 4.4 96 96 VRB 6 9 30.12 1020 6 9.65604 0.13 3.302
11:53 am 11:53 Mostly Sunny 42 5.6 41 5 96 96 VRB 6 9 30.1 1019 8 12.87472 0.14 3.556
12:53 pm 12:53 Sunny 46 7.8 42 5.6 86 86 SSE 3 6 30.07 1018 10 16.0934 N/A
1:53 pm 13:53 Sunny 52 11.1 43 6.1 72 72 S 8 13 30.06 1018 10 16.0934 N/A
2:53 pm 14:53 Partly Cloudy 51 10.6 42 5.6 71 71 S 9 15 30.01 1016 10 16.0934 N/A
3:53 pm 15:53 Mostly Cloudy 52 11.1 43 6.1 72 72 E 6 9 29.99 1016 10 16.0934 N/A
4:41 pm 16:41 Cloudy with Nearby Thunderstorms 51 10.6 42 5.6 71 71 N N/A 30 1016 10 16.0934 N/A
4:53 pm 16:53 Cloudy with Light Rain 51 10.6 44 6.7 77 77 N 6 9 30.02 1017 10 16.0934 N/A
5:19 pm 17:19 Cloudy with Nearby Thunderstorms 51 10.6 43 6.1 74 74 N N/A 30.03 1017 10 16.0934 N/A
5:34 pm 17:34 Cloudy 50 10 44 6.7 80 80 ESE 3 6 30.03 1017 10 16.0934 N/A
5:53 pm 17:53 Cloudy with Nearby Thunderstorms 49 9.4 45 7.2 86 86 ESE 5 7 29.98 1015 10 16.0934 0.04 1.016
6:02 pm 18:02 Cloudy with Heavy Thunderstorms 48 8.9 46 7.8 93 93 SSE 7 11 30 1016 2.5 4.02335 0.07 1.778
6:07 pm 18:07 Cloudy with Heavy Thunderstorms 48 8.9 46 7.8 93 93 VRB 3 6 30 1016 1.5 2.41401 0.12 3.048
6:10 pm 18:10 Cloudy with Heavy Thunderstorms 48 8.9 46 7.8 93 93 SSE 6 9 30 1016 2 3.21868 0.12 3.048
6:23 pm 18:23 Cloudy with Light Thunderstorms 48 8.9 46 7.8 93 93 VRB 3 6 29.97 1015 3 4.82802 0.14 3.556
6:43 pm 18:43 Cloudy with Light Rain 49 9.4 46 7.8 90 90 NNW 8 13 30.03 1017 8 12.87472 0.16 4.064
6:53 pm 18:53 Cloudy with Nearby Thunderstorms 49 9.4 48 8.9 97 97 S 3 6 29.98 1015 10 16.0934 0.16 4.064
7:13 pm 19:13 Cloudy 50 10 46 7.8 86 86 N N/A 30.03 1017 10 16.0934 N/A
7:34 pm 19:34 Cloudy 49 9.4 48 8.9 97 97 N N/A 30 1016 8 12.87472 N/A
7:53 pm 19:53 Cloudy 49 9.4 47 8.3 93 93 NNE 6 9 29.98 1015 10 16.0934 N/A
8:53 pm 20:53 Cloudy 49 9.4 47 8.3 93 93 NE 3 6 30 1016 10 16.0934 N/A
9:53 pm 21:53 Cloudy with Mist and Fog 48 8.9 48 8.9 100 100 N N/A 30.01 1016 6 9.65604 N/A
10:18 pm 22:18 Cloudy with Thunderstorms 48 8.9 47 8.3 96 96 NW 3 6 30.06 1018 5 8.0467 N/A
10:33 pm 22:33 Cloudy with Nearby Thunderstorms 48 8.9 48 8.9 100 100 N N/A 30.03 1017 5 8.0467 N/A
10:48 pm 22:48 Cloudy with Light Rain 48 9 46 8 94 94 N N/A 30.06 1018 5 8.0467 N/A
10:53 pm 22:53 Cloudy with Nearby Thunderstorms 48 8.9 48 8.9 100 100 N N/A 30.03 1017 5 8.0467 N/A
11:12 pm 23:12 Cloudy with Light Rain 48 8.9 47 8.3 96 96 N N/A 30.06 1018 5 8.0467 N/A
11:53 pm 23:53 Cloudy with Mist and Fog 48 8.9 48 8.9 100 100 N N/A 30.03 1017 3 4.82802 N/A

Powered by AerisWeather